Texico, NM

7:35 PM MDT on September 30, 2016 (GMT -0600)
Clovis Municipal

Weather History for KCVN - December, 2013

Change the Weather History Date:

Monday, December 30, 2013

  Actual Average Record
Temperature  
Mean Temperature 34 °F -  
Max Temperature 51 °F 49 °F 73 °F (2008)
Min Temperature 17 °F 22 °F 0 °F (1983)
Degree Days  
Heating Degree Days 31    
Moisture  
Dew Point 16 °F    
Average Humidity 56    
Maximum Humidity 80    
Minimum Humidity 28    
Precipitation  
Precipitation 0.00 in - - ()
Sea Level Pressure  
Sea Level Pressure 30.23 in    
Wind  
Wind Speed 12 mph (NW)    
Max Wind Speed 30 mph    
Max Gust Speed 37 mph    
Visibility 10 miles    
Events      
Averages and records for this station are not official NWS values.
T = Trace of Precipitation, MM = Missing Value Source: NWS Daily Summary

Daily Weather History Graph

Daily Weather History Graph

Search for Another Location

Airport or City:

Trip Planner

Search our weather history database for the weather conditions in past years. The results will help you decide how hot, cold, wet, or windy it might be!

Date:

Astronomy

Dec. 30, 2013 Rise Set
Actual Time 6:58 AM MST 4:51 PM MST
Civil Twilight 6:30 AM MST 5:19 PM MST
Nautical Twilight 5:59 AM MST 5:50 PM MST
Astronomical Twilight 5:28 AM MST 6:21 PM MST
Moon 4:52 AM MST (12/30) 3:25 PM MST (12/30)
Length of Visible Light 10h 49m
Length of Day
9h 53m
Waning Crescent, 4% of the Moon is Illuminated
Dec 30
Waning Crescent
Jan 1
New
Jan 7
First Quarter
Jan 15
Full
Jan 23
Last Quarter

Hourly Weather History & Observations

Time (MST) Temp. Windchill Dew Point Humidity Pressure Visibility Wind Dir Wind Speed Gust Speed Precip Events Conditions
12:15 AM 19.4 °F 9.5 °F 12.2 °F 74% 30.16 in 10.0 mi WSW 8.1 mph - N/A   Clear
12:35 AM 17.6 °F 6.4 °F 12.2 °F 79% 30.16 in 10.0 mi WSW 9.2 mph - N/A   Clear
12:55 AM 17.6 °F 6.4 °F 12.2 °F 79% 30.15 in 10.0 mi SW 9.2 mph - N/A   Clear
1:15 AM 17.6 °F 5.7 °F 10.4 °F 73% 30.14 in 10.0 mi SW 10.4 mph - N/A   Clear
1:35 AM 17.6 °F 6.4 °F 12.2 °F 79% 30.14 in 10.0 mi SW 9.2 mph - N/A   Clear
1:55 AM 17.6 °F 6.4 °F 10.4 °F 73% 30.13 in 10.0 mi SW 9.2 mph - N/A   Clear
2:15 AM 17.6 °F 5.7 °F 10.4 °F 73% 30.12 in 10.0 mi SW 10.4 mph - N/A   Clear
2:35 AM 19.4 °F 6.6 °F 12.2 °F 74% 30.11 in 10.0 mi SW 12.7 mph - N/A   Clear
2:55 AM 19.4 °F 8.6 °F 12.2 °F 74% 30.11 in 10.0 mi WSW 9.2 mph - N/A   Clear
3:15 AM 19.4 °F 7.9 °F 12.2 °F 74% 30.11 in 10.0 mi WSW 10.4 mph - N/A   Clear
3:35 AM 19.4 °F 6.0 °F 14.0 °F 80% 30.09 in 10.0 mi SW 13.8 mph - N/A   Clear
3:55 AM 19.4 °F 6.6 °F 12.2 °F 74% 30.08 in 10.0 mi SW 12.7 mph - N/A   Clear
4:15 AM 19.4 °F 6.6 °F 14.0 °F 80% 30.07 in 10.0 mi WSW 12.7 mph - N/A   Clear
4:35 AM 19.4 °F 7.9 °F 12.2 °F 74% 30.07 in 10.0 mi WSW 10.4 mph - N/A   Clear
4:55 AM 21.2 °F 7.8 °F 15.8 °F 80% 30.07 in 10.0 mi WSW 15.0 mph - N/A   Clear
5:15 AM 21.2 °F 6.8 °F 15.8 °F 80% 30.06 in 10.0 mi WSW 17.3 mph - N/A   Clear
5:35 AM 21.2 °F 8.9 °F 15.8 °F 80% 30.06 in 10.0 mi WSW 12.7 mph - N/A   Clear
5:55 AM 21.2 °F 8.9 °F 14.0 °F 74% 30.06 in 10.0 mi West 12.7 mph - N/A   Clear
6:15 AM 23.0 °F 10.1 °F 17.6 °F 80% 30.07 in 10.0 mi West 15.0 mph - N/A   Clear
6:35 AM 24.8 °F 12.9 °F 17.6 °F 74% 30.07 in 10.0 mi West 13.8 mph - N/A   Clear
6:55 AM 24.8 °F 14.0 °F 17.6 °F 74% 30.09 in 10.0 mi West 11.5 mph - N/A   Clear
7:15 AM 24.8 °F 14.6 °F 15.8 °F 69% 30.11 in 10.0 mi WNW 10.4 mph - N/A   Clear
7:35 AM 24.8 °F 14.0 °F 17.6 °F 74% 30.12 in 10.0 mi WNW 11.5 mph - N/A   Clear
7:55 AM 28.4 °F 16.6 °F 19.4 °F 69% 30.13 in 10.0 mi WNW 16.1 mph - N/A   Clear
8:15 AM 30.2 °F 18.5 °F 21.2 °F 69% 30.15 in 10.0 mi WNW 17.3 mph - N/A   Clear
8:35 AM 33.8 °F 23.2 °F 21.2 °F 60% 30.17 in 10.0 mi WNW 17.3 mph - N/A   Clear
8:55 AM 35.6 °F 25.5 °F 23.0 °F 60% 30.18 in 10.0 mi NW 17.3 mph - N/A   Clear
9:15 AM 37.4 °F 27.8 °F 23.0 °F 56% 30.20 in 10.0 mi NW 17.3 mph - N/A   Clear
9:35 AM 39.2 °F 29.8 °F 23.0 °F 52% 30.21 in 10.0 mi North 18.4 mph 24.2 mph N/A   Clear
9:55 AM 44.6 °F 35.9 °F 21.2 °F 39% 30.22 in 10.0 mi North 23.0 mph 26.5 mph N/A   Clear
10:15 AM 46.4 °F 37.9 °F 21.2 °F 37% 30.23 in 10.0 mi NNE 25.3 mph 28.8 mph N/A   Clear
10:35 AM 46.4 °F 38.3 °F 21.2 °F 37% 30.23 in 10.0 mi NNE 23.0 mph 28.8 mph N/A   Clear
10:55 AM 48.2 °F - 21.2 °F 34% 30.24 in 10.0 mi NNE 29.9 mph 34.5 mph N/A   Clear
11:15 AM 48.2 °F - 21.2 °F 34% 30.24 in 10.0 mi NE 24.2 mph 33.4 mph N/A   Clear
11:35 AM 48.2 °F - 21.2 °F 34% 30.23 in 10.0 mi NE 26.5 mph - N/A   Clear
11:55 AM 48.2 °F - 19.4 °F 32% 30.23 in 10.0 mi NE 26.5 mph 36.8 mph N/A   Clear
12:15 PM 50.0 °F - 19.4 °F 30% 30.22 in 10.0 mi NE 20.7 mph 27.6 mph N/A   Clear
12:35 PM 50.0 °F - 19.4 °F 30% 30.23 in 10.0 mi NE 21.9 mph - N/A   Clear
12:55 PM 51.8 °F - 19.4 °F 28% 30.23 in 10.0 mi NE 17.3 mph 26.5 mph N/A   Clear
1:15 PM 51.8 °F - 19.4 °F 28% 30.23 in 10.0 mi ENE 18.4 mph 23.0 mph N/A   Clear
1:35 PM 51.8 °F - 19.4 °F 28% 30.23 in 10.0 mi NE 17.3 mph - N/A   Clear
1:55 PM 51.8 °F - 19.4 °F 28% 30.24 in 10.0 mi NE 17.3 mph 23.0 mph N/A   Clear
2:15 PM 51.8 °F - 19.4 °F 28% 30.24 in 10.0 mi NNE 12.7 mph 20.7 mph N/A   Clear
2:35 PM 51.8 °F - 19.4 °F 28% 30.25 in 10.0 mi NE 13.8 mph 18.4 mph N/A   Clear
2:55 PM 51.8 °F - 19.4 °F 28% 30.25 in 10.0 mi NE 12.7 mph 16.1 mph N/A   Clear
3:15 PM 50.0 °F - 19.4 °F 30% 30.26 in 10.0 mi NNE 13.8 mph - N/A   Clear
3:35 PM 48.2 °F - 19.4 °F 32% 30.27 in 10.0 mi NE 12.7 mph 17.3 mph N/A   Clear
3:55 PM 48.2 °F - 17.6 °F 30% 30.27 in 10.0 mi NE 12.7 mph - N/A   Clear
4:15 PM 46.4 °F 41.9 °F 17.6 °F 32% 30.28 in 10.0 mi NE 9.2 mph - N/A   Clear
4:35 PM 44.6 °F 40.7 °F 17.6 °F 34% 30.29 in 10.0 mi ENE 6.9 mph - N/A   Clear
4:55 PM 39.2 °F 32.5 °F 15.8 °F 39% 30.29 in 10.0 mi ENE 10.4 mph - N/A   Clear
5:15 PM 35.6 °F 28.0 °F 15.8 °F 44% 30.30 in 10.0 mi NE 10.4 mph - N/A   Clear
5:35 PM 33.8 °F 30.8 °F 14.0 °F 44% 30.31 in 10.0 mi NNW 3.5 mph - N/A   Clear
5:55 PM 32.0 °F 28.7 °F 14.0 °F 48% 30.33 in 10.0 mi North 3.5 mph - N/A   Clear
6:15 PM 32.0 °F - 14.0 °F 48% 30.33 in 10.0 mi Calm Calm - N/A   Clear
6:35 PM 28.4 °F - 14.0 °F 55% 30.34 in 10.0 mi Calm Calm - N/A   Clear
6:55 PM 26.6 °F - 14.0 °F 59% 30.34 in 10.0 mi Calm Calm - N/A   Clear
7:15 PM 28.4 °F - 15.8 °F 59% 30.35 in 10.0 mi Calm Calm - N/A   Clear
7:35 PM 28.4 °F - 14.0 °F 55% 30.35 in 10.0 mi Calm Calm - N/A   Clear
7:55 PM 28.4 °F - 14.0 °F 55% 30.36 in 10.0 mi Calm Calm - N/A   Clear
8:15 PM 24.8 °F - 12.2 °F 59% 30.37 in 10.0 mi Calm Calm - N/A   Clear
8:35 PM 26.6 °F - 15.8 °F 64% 30.37 in 10.0 mi Calm Calm - N/A   Clear
8:55 PM 24.8 °F 20.5 °F 12.2 °F 59% 30.37 in 10.0 mi East 3.5 mph - N/A   Clear
9:15 PM 26.6 °F - 12.2 °F 55% 30.37 in 10.0 mi Calm Calm - N/A   Clear
9:35 PM 26.6 °F - 14.0 °F 59% 30.38 in 10.0 mi Calm Calm - N/A   Clear
9:55 PM 24.8 °F 19.1 °F 12.2 °F 59% 30.38 in 10.0 mi WSW 4.6 mph - N/A   Clear
10:15 PM 24.8 °F 20.5 °F 14.0 °F 64% 30.38 in 10.0 mi WSW 3.5 mph - N/A   Clear
10:35 PM 24.8 °F 17.9 °F 15.8 °F 69% 30.38 in 10.0 mi WSW 5.8 mph - N/A   Clear
10:55 PM 24.8 °F 16.9 °F 15.8 °F 69% 30.38 in 10.0 mi WSW 6.9 mph - N/A   Clear
11:15 PM 24.8 °F 16.9 °F 14.0 °F 64% 30.38 in 10.0 mi WSW 6.9 mph - N/A   Clear
11:35 PM 24.8 °F 16.9 °F 12.2 °F 59% 30.37 in 10.0 mi West 6.9 mph - N/A   Clear
11:55 PM 24.8 °F 16.9 °F 14.0 °F 64% 30.37 in 10.0 mi West 6.9 mph - N/A   Clear